Regional Weather Roundup
Issued by NWS

Home | Current Version | Previous Version | Text Only | Print | Product List | Glossary Off
Versions: 1 2 3 4 5 6 7 8 9 10 11 12 13 14 15 16 17 18 19 20 21 22 23 24 25 26 27 28 29 30 31 32 33 34 35 36 37 38 39 40 41 42 43 44 45 46 47 48 49 50

000
ASUS43 KOAX 281002
RWRNE

WEATHER ROUNDUP FOR NEBRASKA
NATIONAL WEATHER SERVICE OMAHA NE
500 AM CDT THU MAY 28 2015

NOTES: SATELLITE DATA IS BEING USED TO AUGMENT CLOUD COVER ABOVE
       12000 FEET.
       "FAIR" INDICATES FEW OR NO CLOUDS BELOW 12,000 FEET WITH NO
       SIGNIFICANT WEATHER AND/OR OBSTRUCTIONS TO VISIBILITY.

  * THESE STATIONS DO NOT REPORT WEATHER SUCH AS RAIN...SNOW OR FOG.

NEZ001>004-019>022-054>056-281100-
NEBRASKA PANHANDLE

CITY           SKY/WX    TMP DP  RH WIND       PRES   REMARKS
SCOTTSBLUFF    MOCLDY    53  50  89 CALM      30.00F
ALLIANCE       MOCLDY    53  50  89 W7        29.97F
CHADRON        MOCLDY    57  50  77 SW8       29.94S
KIMBALL          N/A    N/A N/A N/A MISG        N/A
SIDNEY         PTCLDY    49  49 100 S6        30.02F
$$

NEZ057>060-069>072-079>082-281100-
SOUTHWEST NEBRASKA

CITY           SKY/WX    TMP DP  RH WIND       PRES   REMARKS
NORTH PLATTE   CLEAR     53  52  96 SW3       30.04R
IMPERIAL       MOCLDY    53  51  93 CALM      30.03R
LEXINGTON      MOCLDY    58  57  96 S5        30.02F FOG
MCCOOK         CLOUDY    54  52  93 E7        30.02R
$$

NEZ005>010-023>029-035>040-094-281100-
NORTH CENTRAL NEBRASKA

CITY           SKY/WX    TMP DP  RH WIND       PRES   REMARKS
VALENTINE      MOCLDY    55  53  93 SE6       29.96F
AINSWORTH      PTCLDY    56  56  98 S7        29.99S
BROKEN BOW     MOCLDY    56  55  97 CALM      30.02R FOG
ORD            PTCLDY    59  56  89 SE6       30.00R
$$

NEZ041-046>049-061>064-073>077-083>087-281100-
SOUTH CENTRAL NEBRASKA

CITY           SKY/WX    TMP DP  RH WIND       PRES   REMARKS
GRAND ISLAND   MOCLDY    62  57  83 S8        30.03R
HASTINGS       CLOUDY    61  58  90 S7        30.02R
KEARNEY *      CLOUDY    59  55  88 S7        30.02S
$$

NEZ011>018-030>034-042>045-281100-
NORTHEAST NEBRASKA

CITY           SKY/WX    TMP DP  RH WIND       PRES   REMARKS
NORFOLK        PTCLDY    64  52  64 S12       30.02S
BLAIR          MOCLDY    63  52  67 SE3       30.05R
COLUMBUS *     MOCLDY    64  50  59 S12       30.04R
FREMONT        MOCLDY    61  54  76 SE6       30.04S
TEKAMAH        PTCLDY    59  53  80 S3        30.04S
$$

NEZ050>053-065>068-078-088>093-281100-
SOUTHEAST NEBRASKA

CITY           SKY/WX    TMP DP  RH WIND       PRES   REMARKS
LINCOLN        CLOUDY    65  55  70 S5        30.04R
OMAHA EPPLEY   CLOUDY    63  54  72 SE5       30.04S
NEBRASKA CITY  CLOUDY    64  51  63 SE6       30.04F
PLATTSMOUTH    CLOUDY    61  54  77 SE5       30.05S
$$

NEZ044-045-051>053-067-281100-
OMAHA AREA

CITY           SKY/WX    TMP DP  RH WIND       PRES   REMARKS
OMAHA EPPLEY   CLOUDY    63  54  72 SE5       30.04S
BLAIR          MOCLDY    63  52  67 SE3       30.05R
FREMONT        MOCLDY    61  54  76 SE6       30.04S
OFFUTT AFB     MOCLDY    57  54  89 E8        30.04S
PLATTSMOUTH    CLOUDY    61  54  77 SE5       30.05S
WAHOO          FAIR      59  55  85 SE6       30.04S
$$


USA.gov is the U.S. government's official web portal to all federal, state and local government web resources and services.